Location: Bjelajci
(45.0103°N, 16.1758°E)
Time: 19:51:58
(UTC+00:00)

Meteor 1-13 Rocket - Pass Details

Date: 14 July 2020
Orbit: 830 x 913 km, 81.3° (Epoch: 05 August)

Event Time Altitude Azimuth Distance (km) Brightness Sun altitude
Rises 01:06:08 0° 348° (NNW) 3,492 8.2 -17.5°
Reaches altitude 10° 01:08:36 10° 348° (NNW) 2,537 7.3 -17.3°
Maximum altitude 01:14:22 82° 263° (W) 874 4.2 -16.8°
Enters shadow 01:18:37 18° 176° (S) 1,955 5.6 -16.4°
